Zurück zum Katalog

STARLINK-5727

AktivKommunikationVLEO
NORAD 55587·PAYLOAD·🇺🇸 United States

Gestartet Feb 12, 2023 von Cape Canaveral Space Force Station

Loading…

Nächste Überflüge (nächste 24 Stunden)

TLE

AktuellSource: CelesTrak SupGP

Epoche: Sep 15, 2026, 02:48 UTC

1 55587C 23020U   26258.11715278 -.00010799  00000+0 -39158-3 0  2586
2 55587  43.0044  15.4723 0002073 267.8597  23.5714 15.27545581    11

Verfolge STARLINK-5727 in Echtzeit mit AllMySat

Download on the App Store